Location: *
(51.8167°N, 12.5000°E)
Time: 06:27:27
(UTC+00:00)

Cosmos 1455 Rocket - Pass Details

Date: 16 September 2019
Orbit: 605 x 630 km, 82.5° (Epoch: 21 October)

Event Time Altitude Azimuth Distance (km) Brightness Sun altitude
Exits shadow 19:44:40 37° 186° (S) 975 3.8 -21.2°
Maximum altitude 19:46:23 86° 100° (E) 636 2.9 -21.4°
Drops below altitude 10° 19:50:53 10° 11° (NNE) 2,020 6.0 -22.0°
Sets 19:53:08 0° 12° (NNE) 2,934 6.9 -22.3°
